Date,TemperatureHighF,TemperatureAvgF,TemperatureLowF,DewpointHighF,DewpointAvgF,DewpointLowF,HumidityHigh,HumidityAvg,HumidityLow,PressureMaxIn,PressureMinIn,WindSpeedMaxMPH,WindSpeedAvgMPH,GustSpeedMaxMPH,PrecipitationSumIn
2013-8-1,90.3,81.1,75.2,79.0,76.0,73.0,95,85,65,30.07,29.93,14,4,27,0.03
2013-8-2,87.9,82.0,75.0,80.0,76.7,73.0,95,84,73,30.06,29.95,11,3,15,0.00
2013-8-3,85.9,82.2,78.8,80.0,77.5,75.0,93,85,79,30.13,30.03,6,2,14,0.00
2013-8-4,88.2,83.1,76.5,81.0,78.5,74.0,95,86,76,30.12,30.03,17,4,23,0.05
2013-8-5,88.6,85.5,83.2,81.0,79.3,77.0,86,81,75,30.06,29.97,18,5,22,0.00
2013-8-6,90.5,84.4,79.0,82.0,78.6,76.0,94,83,68,30.00,29.91,13,2,15,0.00
2013-8-7,89.5,81.0,77.0,80.0,76.7,75.0,93,87,71,29.97,29.90,10,3,14,0.14
2013-8-8,93.3,82.3,77.0,80.0,76.6,74.0,95,84,59,30.02,29.91,14,5,28,0.38
2013-8-9,90.2,79.9,75.4,79.0,76.0,73.0,95,88,66,30.06,29.96,11,4,21,0.13
2013-8-10,96.0,84.5,75.1,80.0,75.6,73.0,95,77,53,30.11,30.02,14,5,18,0.00
2013-8-11,98.4,86.7,78.2,82.0,77.6,75.0,93,75,54,30.13,30.04,11,5,16,0.00
2013-8-12,98.3,85.5,76.1,79.0,76.0,74.0,94,75,51,30.12,30.00,16,6,18,0.00
2013-8-13,90.6,82.7,77.7,79.0,76.8,74.0,93,83,67,30.05,29.95,10,4,14,0.42
2013-8-14,89.4,81.6,75.1,79.0,75.9,73.0,94,83,65,30.04,29.93,13,4,21,0.02
2013-8-15,84.9,80.1,76.0,80.0,76.5,74.0,95,89,80,30.07,29.95,7,2,14,0.11
2013-8-16,95.0,83.4,76.7,81.0,77.3,72.0,93,82,60,30.05,29.96,20,4,27,0.33
2013-8-17,94.1,82.3,77.4,82.0,77.6,74.0,95,86,60,30.08,29.98,15,4,27,0.09
2013-8-18,94.0,81.4,77.6,81.0,77.0,75.0,95,87,60,30.09,29.98,18,5,28,0.84
2013-8-19,93.5,79.2,74.1,81.0,75.8,71.0,95,89,65,30.08,29.97,15,5,17,1.37
2013-8-20,90.7,80.2,74.3,80.0,76.4,73.0,96,88,67,30.06,29.99,13,4,19,0.17
2013-8-21,93.8,81.7,77.4,83.0,77.8,75.0,94,88,66,30.07,29.98,17,6,20,0.48
2013-8-22,92.7,81.6,76.0,82.0,77.2,74.0,95,87,62,30.06,29.95,13,5,20,0.29
2013-8-23,90.5,79.5,75.8,82.0,76.3,73.0,96,90,72,30.02,29.94,13,4,25,1.30
2013-8-24,91.6,81.8,76.0,81.0,76.9,74.0,96,86,65,30.12,29.98,16,4,19,0.00
2013-8-25,92.6,81.5,76.4,82.0,76.7,74.0,93,85,65,30.14,30.03,14,6,18,0.02
2013-8-26,88.8,79.0,73.3,81.0,75.9,72.0,95,90,69,30.11,30.00,16,4,23,0.46
2013-8-27,88.9,77.5,72.5,79.0,73.9,71.0,96,89,65,30.06,29.99,17,4,20,0.32
2013-8-28,87.3,78.0,73.6,77.0,74.0,72.0,96,88,64,30.04,29.97,11,4,15,0.19
2013-8-29,86.9,80.8,74.3,79.0,75.6,73.0,95,84,72,30.04,29.95,14,4,18,0.00
2013-8-30,87.5,82.0,75.6,79.0,76.7,74.0,93,84,72,30.01,29.91,12,3,16,0.00
2013-8-31,88.5,81.9,75.9,79.0,75.9,73.0,94,82,70,30.00,29.92,11,4,21,0.00